Flag for Mexico Weather past 2 weeks in Mexicali, Baja California, Mexico

Now
83 °F

Sunny.


Feels Like: 83 °F
Forecast: 66 / 94 °F
Wind: 7 mph from Southwest

Location: Imperial County Airport

Current Time: May 27, 2015 at 11:51:17 AM

Latest Report: May 27, 2015 at 10:53 AM


Visibility: 10 mi

Pressure: 29.86 "Hg

Humidity: 43%

Dew point: 58 °F

Location of MexicaliLocation

Historic Weather in Mexicali — Graph

°F

Mexicali temperature yesterday

Maximum temperature yesterday: 93 °F (at 4:53 PM)
Minimum temperature yesterday: 65 °F (at 4:53 AM)
Average temperature yesterday: 79 °F

Past Weeks' High & Low Weather Summary

 TemperatureHumidityPressure
High93 °F (May 26, 4:53 PM)97% (May 16, 2:53 AM)29.98 "Hg (May 16, 2:53 AM)
Low50 °F (May 16, 5:53 AM)10% (May 13, 12:53 PM)29.69 "Hg (May 12, 4:53 PM)
Average72 °F42%29.84 "Hg
* Reported May 12 9:53 AM — May 27 9:53 AM, Mexicali, Weather by CustomWeather, © 2015

Note: Actual official high and low records may vary slightly from our data, if they occured in-between our weather recording intervals... More about our weather records

Advertising

Mexicali weather history for previous 24 hours

 ConditionsComfort  
Time TempWeatherWind HumidityBarometerVisibility
9:53 AM
Wed, May 27
79 °FSunny.6 mph47%29.86 "Hg10 mi
8:53 AM76 °FSunny.7 mph52%29.87 "Hg10 mi
7:53 AM74 °FSunny.No wind53%29.85 "Hg10 mi
6:53 AM69 °FSunny.5 mph66%29.84 "Hg10 mi
5:53 AM70 °FClear.No wind57%29.83 "Hg10 mi
4:53 AM70 °FClear.6 mph59%29.81 "Hg10 mi
3:53 AM71 °FClear.8 mph59%29.81 "Hg10 mi
2:53 AM72 °FClear.7 mph55%29.80 "Hg10 mi
1:53 AM73 °FClear.5 mph48%29.80 "Hg10 mi
12:53 AM75 °FClear.5 mph39%29.81 "Hg10 mi
11:53 PM
Tue, May 26
77 °FClear.No wind36%29.81 "Hg10 mi
10:53 PM79 °FClear.No wind34%29.81 "Hg10 mi
9:53 PM80 °FClear.6 mph32%29.80 "Hg10 mi
8:53 PM85 °FClear.12 mph25%29.79 "Hg10 mi
7:53 PM86 °FSunny.12 mph23%29.78 "Hg10 mi
6:53 PM90 °FSunny.14 mph20%29.77 "Hg10 mi
5:53 PM92 °FSunny.14 mph21%29.76 "Hg10 mi
4:53 PM93 °FSunny.10 mph24%29.77 "Hg10 mi
3:53 PM91 °FSunny.No wind25%29.79 "Hg10 mi
2:53 PM91 °FSunny.N/A24%29.81 "Hg10 mi
1:53 PM90 °FSunny.5 mph25%29.83 "Hg10 mi
12:53 PM89 °FSunny.3 mph27%29.85 "Hg10 mi
11:53 AM84 °FSunny.No wind35%29.87 "Hg10 mi
Weather by CustomWeather, © 2015

See weather overviewHow to use our weather pages